When you browse on this site, cookies collect data to enhance your experience and personalize the content and advertising you see.
Visit our Privacy Policy to learn more. By continuing to use the site, you agree to this use of cookies and data.
  • In Romania
  • List of Countries
  • For 7 days
  • Water Temperature
  • Satellite Maps
  • Weather Map
  • Weather Widgets
  • user-avatar
    Login

    Hourly Weather Arakaka

    Today, 22 January, Tuesday

    Time Temperature Precipitation Wind Pressure Humidity
    00:00 +21°C° 0 mm 0 mps 755 mmHg 98%
    01:00 +21°C° 0 mm 0 mps 755 mmHg 99%
    02:00 +21°C° 0 mm 0 mps 755 mmHg 99%
    03:00 +21°C° 0 mm 0 mps 755 mmHg 99%
    04:00 +21°C° 0 mm 0 mps 755 mmHg 99%
    05:00 +21°C° 0 mm 0 mps 755 mmHg 99%
    06:00 +22°C° 0 mm 0 mps 755 mmHg 95%
    07:00 +23°C° 0 mm 0 mps 756 mmHg 90%
    08:00 +24°C° 0 mm 0 mps 756 mmHg 86%
    09:00 +28°C° 0 mm 1 mps 756 mmHg 75%
    10:00 +30°C° 0 mm 1 mps 756 mmHg 64%
    11:00 +32°C° 0 mm 1 mps 756 mmHg 53%
    12:00 +32°C° 0.2 mm 1 mps 756 mmHg 54%
    13:00 +32°C° 0.2 mm 1 mps 755 mmHg 56%
    14:00 +32°C° 0.2 mm 2 mps 754 mmHg 57%
    15:00 +31°C° 0.4 mm 1 mps 754 mmHg 64%
    16:00 +30°C° 0.4 mm 1 mps 753 mmHg 71%
    17:00 +29°C° 0.4 mm 1 mps 753 mmHg 78%
    18:00 +27°C° 0.1 mm 1 mps 754 mmHg 83%
    19:00 +26°C° 0.1 mm 1 mps 754 mmHg 88%
    20:00 +25°C° 0.1 mm 1 mps 754 mmHg 93%
    21:00 +24°C° 0 mm 1 mps 755 mmHg 95%
    22:00 +24°C° 0 mm 1 mps 755 mmHg 97%
    23:00 +23°C° 0 mm 1 mps 755 mmHg 99%

    Tomorrow, 23 January, Wednesday

    Time Temperature Precipitation Wind Pressure Humidity
    00:00 +21°C° 0 mm 0 mps 755 mmHg 99%
    01:00 +21°C° 0 mm 0 mps 755 mmHg 99%
    02:00 +20°C° 0 mm 0 mps 754 mmHg 99%
    03:00 +20°C° 0 mm 0 mps 754 mmHg 99%
    04:00 +20°C° 0 mm 0 mps 754 mmHg 99%
    05:00 +20°C° 0 mm 0 mps 754 mmHg 99%
    06:00 +21°C° 0 mm 0 mps 755 mmHg 95%
    07:00 +22°C° 0 mm 0 mps 756 mmHg 91%
    08:00 +23°C° 0 mm 0 mps 756 mmHg 88%
    09:00 +25°C° 0.1 mm 0 mps 756 mmHg 78%
    10:00 +29°C° 0.1 mm 1 mps 756 mmHg 68%
    11:00 +31°C° 0.1 mm 1 mps 757 mmHg 58%
    12:00 +31°C° 0.4 mm 2 mps 756 mmHg 59%
    13:00 +31°C° 0.4 mm 2 mps 755 mmHg 60%
    14:00 +31°C° 0.4 mm 2 mps 754 mmHg 61%
    15:00 +30°C° 0.3 mm 2 mps 754 mmHg 63%
    16:00 +30°C° 0.3 mm 2 mps 753 mmHg 65%
    17:00 +29°C° 0.3 mm 2 mps 753 mmHg 67%
    18:00 +27°C° 0 mm 1 mps 754 mmHg 74%
    19:00 +26°C° 0 mm 1 mps 754 mmHg 80%
    20:00 +24°C° 0 mm 1 mps 755 mmHg 87%
    21:00 +24°C° 0 mm 1 mps 755 mmHg 91%
    22:00 +21°C° 0 mm 0 mps 755 mmHg 94%
    23:00 +21°C° 0 mm 0 mps 755 mmHg 98%

    Day after tomorrow, 24 January, Thursday

    Time Temperature Precipitation Wind Pressure Humidity
    00:00 +21°C° 0 mm 0 mps 755 mmHg 98%
    01:00 +21°C° 0 mm 0 mps 755 mmHg 98%
    02:00 +21°C° 0 mm 0 mps 754 mmHg 98%
    03:00 +21°C° 0.1 mm 0 mps 754 mmHg 98%
    04:00 +21°C° 0.1 mm 0 mps 754 mmHg 97%
    05:00 +21°C° 0.1 mm 0 mps 754 mmHg 97%
    06:00 +24°C° 0.1 mm 1 mps 754 mmHg 96%
    07:00 +24°C° 0.1 mm 1 mps 755 mmHg 94%
    08:00 +25°C° 0.1 mm 1 mps 755 mmHg 93%
    09:00 +28°C° 0 mm 1 mps 756 mmHg 77%
    10:00 +30°C° 0 mm 2 mps 756 mmHg 61%
    11:00 +32°C° 0 mm 2 mps 756 mmHg 45%
    12:00 +32°C° 0 mm 2 mps 755 mmHg 48%
    13:00 +31°C° 0 mm 2 mps 754 mmHg 52%
    14:00 +30°C° 0 mm 2 mps 753 mmHg 56%
    15:00 +29°C° 0.2 mm 2 mps 753 mmHg 63%
    16:00 +28°C° 0.2 mm 2 mps 753 mmHg 70%
    17:00 +27°C° 0.2 mm 2 mps 753 mmHg 77%
    18:00 +26°C° 0 mm 1 mps 753 mmHg 82%
    19:00 +25°C° 0 mm 1 mps 754 mmHg 87%
    20:00 +24°C° 0 mm 1 mps 754 mmHg 92%
    21:00 +23°C° 0 mm 1 mps 755 mmHg 94%
    22:00 +21°C° 0 mm 0 mps 755 mmHg 96%
    23:00 +20°C° 0 mm 0 mps 755 mmHg 98%

    25 January, Friday

    Time Temperature Precipitation Wind Pressure Humidity
    00:00 +20°C° 0 mm 0 mps 755 mmHg 98%
    01:00 +20°C° 0 mm 0 mps 754 mmHg 98%
    02:00 +20°C° 0 mm 0 mps 754 mmHg 99%
    03:00 +20°C° 0 mm 0 mps 754 mmHg 99%
    04:00 +20°C° 0 mm 0 mps 754 mmHg 99%
    05:00 +20°C° 0 mm 0 mps 754 mmHg 99%
    06:00 +21°C° 0 mm 0 mps 754 mmHg 94%
    07:00 +22°C° 0 mm 0 mps 755 mmHg 89%
    08:00 +23°C° 0 mm 0 mps 755 mmHg 85%
    09:00 +26°C° 0 mm 0 mps 755 mmHg 74%
    10:00 +30°C° 0 mm 1 mps 755 mmHg 63%
    11:00 +32°C° 0 mm 1 mps 755 mmHg 51%
    12:00 +32°C° 0.1 mm 1 mps 754 mmHg 51%
    13:00 +34°C° 0.1 mm 2 mps 753 mmHg 51%
    14:00 +34°C° 0.1 mm 2 mps 752 mmHg 51%
    15:00 +32°C° 0.2 mm 2 mps 752 mmHg 56%
    16:00 +31°C° 0.2 mm 2 mps 751 mmHg 60%
    17:00 +30°C° 0.2 mm 1 mps 751 mmHg 64%
    18:00 +28°C° 0 mm 2 mps 751 mmHg 68%
    19:00 +27°C° 0 mm 2 mps 752 mmHg 71%
    20:00 +25°C° 0 mm 2 mps 752 mmHg 75%
    21:00 +24°C° 0 mm 1 mps 753 mmHg 82%
    22:00 +23°C° 0 mm 1 mps 753 mmHg 89%
    23:00 +20°C° 0 mm 0 mps 753 mmHg 96%

    26 January, Saturday

    Time Temperature Precipitation Wind Pressure Humidity
    00:00 +20°C° 0 mm 0 mps 753 mmHg 97%
    01:00 +20°C° 0 mm 0 mps 753 mmHg 98%
    02:00 +20°C° 0 mm 0 mps 753 mmHg 99%
    03:00 +20°C° 0 mm 0 mps 753 mmHg 99%
    04:00 +20°C° 0 mm 0 mps 753 mmHg 99%
    05:00 +20°C° 0 mm 0 mps 753 mmHg 99%
    06:00 +21°C° 0 mm 0 mps 754 mmHg 94%
    07:00 +22°C° 0 mm 0 mps 754 mmHg 89%
    08:00 +23°C° 0 mm 0 mps 755 mmHg 84%
    09:00 +27°C° 0.1 mm 1 mps 755 mmHg 73%
    10:00 +30°C° 0.1 mm 1 mps 755 mmHg 62%
    11:00 +32°C° 0.1 mm 2 mps 755 mmHg 51%
    12:00 +32°C° 0 mm 1 mps 754 mmHg 50%
    13:00 +32°C° 0 mm 1 mps 753 mmHg 48%
    14:00 +32°C° 0 mm 1 mps 752 mmHg 47%
    15:00 +32°C° 0 mm 1 mps 751 mmHg 47%
    16:00 +31°C° 0 mm 1 mps 751 mmHg 48%
    17:00 +31°C° 0 mm 1 mps 750 mmHg 49%
    18:00 +29°C° 0 mm 1 mps 751 mmHg 56%
    19:00 +28°C° 0 mm 2 mps 751 mmHg 64%
    20:00 +26°C° 0 mm 2 mps 752 mmHg 71%
    21:00 +25°C° 0 mm 2 mps 752 mmHg 79%
    22:00 +24°C° 0 mm 1 mps 752 mmHg 86%
    23:00 +22°C° 0 mm 1 mps 753 mmHg 94%

    27 January, Sunday

    Time Temperature Precipitation Wind Pressure Humidity
    00:00 +22°C° 0 mm 1 mps 752 mmHg 95%
    01:00 +21°C° 0 mm 1 mps 752 mmHg 97%
    02:00 +19°C° 0 mm 0 mps 752 mmHg 99%
    03:00 +19°C° 0 mm 0 mps 752 mmHg 99%
    04:00 +19°C° 0 mm 0 mps 752 mmHg 99%
    05:00 +19°C° 0 mm 0 mps 752 mmHg 99%
    06:00 +20°C° 0 mm 0 mps 753 mmHg 94%
    07:00 +23°C° 0 mm 1 mps 753 mmHg 89%
    08:00 +24°C° 0 mm 1 mps 754 mmHg 84%
    09:00 +27°C° 0 mm 1 mps 754 mmHg 71%
    10:00 +30°C° 0 mm 1 mps 754 mmHg 58%
    11:00 +34°C° 0 mm 2 mps 754 mmHg 45%
    12:00 +34°C° 0 mm 1 mps 753 mmHg 41%
    13:00 +35°C° 0 mm 1 mps 752 mmHg 37%
    14:00 +36°C° 0 mm 1 mps 751 mmHg 34%
    15:00 +35°C° 0 mm 1 mps 751 mmHg 37%
    16:00 +35°C° 0 mm 2 mps 750 mmHg 40%
    17:00 +35°C° 0 mm 2 mps 750 mmHg 43%
    18:00 +31°C° 0 mm 2 mps 751 mmHg 55%
    19:00 +29°C° 0 mm 2 mps 751 mmHg 66%
    20:00 +27°C° 0 mm 2 mps 752 mmHg 78%
    21:00 +26°C° 0 mm 2 mps 752 mmHg 83%
    22:00 +25°C° 0 mm 1 mps 752 mmHg 88%
    23:00 +24°C° 0 mm 1 mps 753 mmHg 94%
    Show more